Date String (YYYY-MM-DD hh:mm:ss) UTC,Instrument flags,absolute air pressure of the measurement (hPa),sample flow rate (lpm),inlet stack bypass flow (lpm),air temperature of the measurement (°C),ambient temperature measured by the external sensor (°C),aerosol sample conditioner tube jacket temperature (°C),OPC LED temperature (°C),internal box temperature (°C),relative humidity of the measurement (%),span deviation,mass concentration of particles derived from Lorenz-Mie calculation of OPC scattering (μg/m³),mass concentration of particles derived from Lorenz-Mie calculation of OPC scattering (μg/m³),mass concentration of particles derived from Lorenz-Mie calculation of OPC scattering (μg/m³)
DateTimeUTC,F1_M11,P_M11,Q1_M11,Q2_M11,T1_M11,T2_M11,T3_M11,T4_M11,T5_M11,U1_M11,ZSPAN_M11,X0_M11,X2_M11,X1_M11
2023-08-11 06:00:00,SystemResetWarning,0829.7,5.00,000.00,029.4,025.9,000.0,037.7,030.9,19.5,0000.0,0007.69,0004.40,0003.98
2023-08-11 06:01:00,SystemResetWarning,0829.7,5.00,000.00,029.4,025.6,000.0,037.7,030.7,19.6,0000.0,0007.86,0004.39,0003.98
2023-08-11 06:02:00,SystemResetWarning,0829.8,5.01,000.00,029.3,025.8,000.0,037.7,030.5,19.8,0000.0,0007.85,0004.38,0003.98
2023-08-11 06:03:00,SystemResetWarning,0829.7,5.01,000.00,029.2,026.2,000.0,037.7,030.6,19.8,0000.0,0008.03,0004.39,0003.98
2023-08-11 06:04:00,SystemResetWarning,0829.8,4.99,000.00,029.2,026.5,000.0,037.8,030.7,19.9,0000.0,0008.24,0004.43,0003.99
2023-08-11 06:05:00,SystemResetWarning,0829.7,5.00,000.00,029.2,026.9,000.0,037.8,030.8,19.9,0000.0,0008.27,0004.46,0004.00
2023-08-11 06:06:00,SystemResetWarning,0829.8,5.01,000.00,029.2,027.2,000.0,037.8,030.9,19.9,0000.0,0008.28,0004.46,0004.00
2023-08-11 06:07:00,SystemResetWarning,0829.8,4.98,000.00,029.3,027.4,000.0,037.8,030.9,19.9,0000.0,0008.32,0004.44,0003.99
2023-08-11 06:08:00,SystemResetWarning,0829.8,4.99,000.00,029.3,027.6,000.0,037.8,031.0,19.9,0000.0,0008.57,0004.45,0003.99
2023-08-11 06:09:00,SystemResetWarning,0829.8,5.00,000.00,029.3,027.8,000.0,037.8,031.0,19.9,0000.0,0008.86,0004.44,0003.98
2023-08-11 06:10:00,SystemResetWarning,0829.8,5.01,000.00,029.3,027.9,000.0,037.9,031.1,19.8,0000.0,0009.27,0004.45,0003.98
2023-08-11 06:11:00,SystemResetWarning,0829.7,5.01,000.00,029.4,028.0,000.0,037.9,031.1,19.8,0000.0,0009.00,0004.49,0003.98
2023-08-11 06:12:00,SystemResetWarning,0829.8,4.99,000.00,029.4,028.1,000.0,037.9,031.1,19.8,0000.0,0008.82,0004.50,0003.99
2023-08-11 06:13:00,SystemResetWarning,0829.8,4.99,000.00,029.4,028.2,000.0,037.9,031.2,19.8,0000.0,0008.90,0004.54,0003.99
2023-08-11 06:14:00,SystemResetWarning,0829.8,4.99,000.00,029.5,028.3,000.0,037.9,031.2,19.7,0000.0,0008.73,0004.54,0003.98
2023-08-11 06:15:00,SystemResetWarning,0829.8,5.00,000.00,029.5,028.3,000.0,038.0,031.2,19.8,0000.0,0008.56,0004.53,0003.98
2023-08-11 06:16:00,SystemResetWarning,0829.8,5.00,000.00,029.5,027.7,000.0,037.9,031.2,19.8,0000.0,0008.61,0004.51,0003.97
2023-08-11 06:17:00,SystemResetWarning,0829.8,5.00,000.00,029.5,026.0,000.0,037.8,030.9,19.8,0000.0,0008.70,0004.52,0003.97
2023-08-11 06:18:00,SystemResetWarning,0829.8,5.01,000.00,029.4,025.7,000.0,037.7,030.8,19.9,0000.0,0008.78,0004.51,0003.98
2023-08-11 06:19:00,SystemResetWarning,0829.8,5.01,000.00,029.3,025.9,000.0,037.7,030.6,20.1,0000.0,0008.55,0004.48,0003.97
2023-08-11 06:20:00,SystemResetWarning,0829.8,5.00,000.00,029.3,026.2,000.0,037.8,030.7,20.2,0000.0,0008.33,0004.47,0003.97
2023-08-11 06:21:00,SystemResetWarning,0829.8,5.00,000.00,029.3,026.6,000.0,037.8,030.7,20.2,0000.0,0007.94,0004.47,0003.98
2023-08-11 06:22:00,SystemResetWarning,0829.8,5.00,000.00,029.3,026.9,000.0,037.8,030.8,20.2,0000.0,0007.88,0004.45,0003.98
2023-08-11 06:23:00,SystemResetWarning,0829.8,5.00,000.00,029.3,027.2,000.0,037.8,030.9,20.1,0000.0,0007.91,0004.46,0003.98
2023-08-11 06:24:00,SystemResetWarning,0829.8,4.99,000.00,029.3,027.5,000.0,037.9,030.9,20.2,0000.0,0008.15,0004.46,0003.99
2023-08-11 06:25:00,SystemResetWarning,0829.8,4.99,000.00,029.3,027.7,000.0,037.9,031.0,20.2,0000.0,0008.18,0004.46,0004.00
2023-08-11 06:26:00,SystemResetWarning,0829.8,4.99,000.00,029.4,027.8,000.0,037.9,031.1,20.2,0000.0,0008.17,0004.47,0004.00
2023-08-11 06:27:00,SystemResetWarning,0829.8,5.00,000.00,029.4,028.0,000.0,037.9,031.1,20.1,0000.0,0008.23,0004.50,0004.01
2023-08-11 06:28:00,SystemResetWarning,0829.8,5.00,000.00,029.4,028.1,000.0,037.9,031.1,20.1,0000.0,0008.16,0004.52,0004.03
2023-08-11 06:29:00,SystemResetWarning,0829.8,5.00,000.00,029.5,028.2,000.0,037.9,031.2,20.1,0000.0,0008.17,0004.55,0004.04
2023-08-11 06:30:00,SystemResetWarning,0829.8,5.00,000.00,029.5,028.3,000.0,038.0,031.2,20.1,0000.0,0008.56,0004.58,0004.04
2023-08-11 06:31:00,SystemResetWarning,0829.8,5.00,000.00,029.5,028.2,000.0,038.0,031.2,20.1,0000.0,0008.54,0004.59,0004.05
2023-08-11 06:32:00,SystemResetWarning,0829.8,4.99,000.00,029.5,026.7,000.0,037.9,031.0,20.1,0000.0,0008.48,0004.60,0004.06
2023-08-11 06:33:00,SystemResetWarning,0829.8,5.01,000.00,029.4,025.6,000.0,037.7,030.8,20.2,0000.0,0008.49,0004.61,0004.08
2023-08-11 06:34:00,SystemResetWarning,0829.8,5.01,000.00,029.4,025.7,000.0,037.7,030.6,20.3,0000.0,0008.97,0004.59,0004.08
2023-08-11 06:35:00,SystemResetWarning,0829.7,5.00,000.00,029.3,026.0,000.0,037.8,030.6,20.4,0000.0,0009.04,0004.56,0004.07
2023-08-11 06:36:00,SystemResetWarning,0829.7,5.00,000.00,029.3,026.4,000.0,037.8,030.7,20.5,0000.0,0009.02,0004.57,0004.08
2023-08-11 06:37:00,SystemResetWarning,0829.7,5.00,000.00,029.3,026.7,000.0,037.8,030.8,20.6,0000.0,0009.10,0004.57,0004.08
2023-08-11 06:38:00,SystemResetWarning,0829.7,5.00,000.00,029.3,027.1,000.0,037.8,030.9,20.6,0000.0,0009.07,0004.58,0004.08
2023-08-11 06:39:00,SystemResetWarning,0829.7,5.00,000.00,029.3,027.3,000.0,037.8,030.9,20.6,0000.0,0009.19,0004.56,0004.07
2023-08-11 06:40:00,SystemResetWarning,0829.7,5.00,000.00,029.3,027.5,000.0,037.9,031.0,20.5,0000.0,0009.10,0004.54,0004.07
2023-08-11 06:41:00,SystemResetWarning,0829.7,5.00,000.00,029.4,027.7,000.0,037.9,031.0,20.5,0000.0,0008.74,0004.53,0004.06
2023-08-11 06:42:00,SystemResetWarning,0829.7,5.01,000.00,029.4,027.9,000.0,037.9,031.1,20.5,0000.0,0009.51,0004.56,0004.06
2023-08-11 06:43:00,SystemResetWarning,0829.7,5.00,000.00,029.4,028.0,000.0,037.9,031.1,20.5,0000.0,0009.54,0004.54,0004.06
2023-08-11 06:44:00,SystemResetWarning,0829.6,5.00,000.00,029.4,028.1,000.0,037.9,031.2,20.5,0000.0,0009.56,0004.55,0004.06
2023-08-11 06:45:00,SystemResetWarning,0829.7,5.00,000.00,029.5,028.2,000.0,037.9,031.2,20.4,0000.0,0009.09,0004.58,0004.07
2023-08-11 06:46:00,SystemResetWarning,0829.7,4.99,000.00,029.5,028.3,000.0,038.0,031.2,20.4,0000.0,0008.78,0004.62,0004.08
2023-08-11 06:47:00,SystemResetWarning,0829.7,4.99,000.00,029.5,027.5,000.0,037.9,031.2,20.4,0000.0,0008.79,0004.63,0004.09
2023-08-11 06:48:00,SystemResetWarning,0829.7,5.00,000.00,029.5,025.8,000.0,037.8,030.9,20.5,0000.0,0008.73,0004.64,0004.10
2023-08-11 06:49:00,SystemResetWarning,0829.7,5.01,000.00,029.4,025.6,000.0,037.7,030.8,20.6,0000.0,0008.64,0004.63,0004.11
2023-08-11 06:50:00,SystemResetWarning,0829.7,5.00,000.00,029.3,025.8,000.0,037.7,030.6,20.6,0000.0,0008.40,0004.63,0004.13
2023-08-11 06:51:00,SystemResetWarning,0829.7,4.99,000.00,029.3,026.2,000.0,037.8,030.7,20.7,0000.0,0008.35,0004.65,0004.14
2023-08-11 06:52:00,SystemResetWarning,0829.7,5.00,000.00,029.3,026.5,000.0,037.8,030.7,20.8,0000.0,0008.40,0004.67,0004.15
2023-08-11 06:53:00,SystemResetWarning,0829.7,5.00,000.00,029.3,026.9,000.0,037.8,030.8,20.8,0000.0,0007.68,0004.70,0004.16
2023-08-11 06:54:00,SystemResetWarning,0829.7,4.99,000.00,029.3,027.2,000.0,037.8,030.9,20.8,0000.0,0007.76,0004.76,0004.18
2023-08-11 06:55:00,SystemResetWarning,0829.8,5.00,000.00,029.3,027.4,000.0,037.9,031.0,20.8,0000.0,0007.74,0004.76,0004.18
2023-08-11 06:56:00,SystemResetWarning,0829.8,5.00,000.00,029.3,027.7,000.0,037.9,031.0,20.8,0000.0,0007.73,0004.76,0004.19
2023-08-11 06:57:00,SystemResetWarning,0829.7,5.00,000.00,029.4,027.8,000.0,037.9,031.1,20.8,0000.0,0008.48,0004.75,0004.19
2023-08-11 06:58:00,SystemResetWarning,0829.7,5.00,000.00,029.4,028.0,000.0,037.9,031.1,20.8,0000.0,0008.59,0004.73,0004.18
2023-08-11 06:59:00,SystemResetWarning,0829.8,5.00,000.00,029.4,028.1,000.0,037.9,031.2,20.7,0000.0,0008.59,0004.73,0004.19
